Location: Boundary
(64.0833°N, 141.0167°W)
Time: 16:16:28
(UTC+00:00)

Envisat - Visible Passes

Search period start: 27 October 2020 00:00
Search period end: 06 November 2020 00:00
Orbit: 764 x 766 km, 98.1° (Epoch: 27 October)

Date Brightness Start Highest point End Pass type
(mag) Time Alt. Az. Time Alt. Az. Time Alt. Az.
27 Oct 5.2 03:21:29 10° SSW 03:25:56 30° W 03:30:24 10° NNW visible
27 Oct 6.3 13:39:09 10° NE 13:41:40 14° ENE 13:44:10 10° ESE visible
27 Oct 4.2 15:17:03 10° NNE 15:22:01 47° E 15:26:55 10° S visible
28 Oct 4.2 02:43:53 10° S 02:48:48 47° W 02:53:44 10° NNW visible
28 Oct 6.3 04:26:38 10° WSW 04:29:08 13° WNW 04:31:38 10° NW visible
28 Oct 5.1 14:40:23 10° NNE 14:44:52 30° E 14:49:19 10° SSE visible
29 Oct 3.3 02:06:43 10° SSE 02:11:49 76° WSW 02:16:57 10° NNW visible
29 Oct 5.7 03:47:49 10° SW 03:51:42 22° W 03:55:37 10° NW visible
29 Oct 5.9 14:03:58 10° NE 14:07:33 19° E 14:11:08 10° SE visible
29 Oct 3.5 15:42:28 10° NNE 15:47:34 66° ESE 15:52:38 10° S visible
30 Oct 4.9 03:09:49 10° SSW 03:14:27 34° W 03:19:06 10° NNW visible
30 Oct 6.4 13:28:18 10° NE 13:30:04 12° ENE 13:31:50 10° E visible
30 Oct 4.5 15:05:42 10° NNE 15:10:32 41° E 15:15:21 10° SSE visible
31 Oct 3.9 02:32:21 10° S 02:37:21 55° WSW 02:42:22 10° NNW visible
31 Oct 6.1 04:14:32 10° WSW 04:17:33 16° WNW 04:20:35 10° NW visible
31 Oct 5.4 14:29:05 10° NNE 14:33:21 26° E 14:37:36 10° SE visible
31 Oct 3.1 16:07:55 10° NNE 16:13:04 90° WNW 16:18:10 10° SSW visible
01 Nov 3.1 01:55:18 10° SSE 02:00:25 86° WSW 02:05:34 10° NNW visible
01 Nov 5.5 03:36:01 10° SW 03:40:10 25° W 03:44:21 10° NNW visible
01 Nov 6.0 13:52:48 10° NE 13:56:00 16° E 13:59:11 10° ESE visible
01 Nov 3.8 15:31:06 10° NNE 15:36:09 58° ESE 15:41:10 10° S visible
02 Nov 4.6 02:58:13 10° SSW 03:02:58 39° W 03:07:45 10° NNW visible
02 Nov 6.5 04:42:08 10° W 04:43:30 11° WNW 04:44:51 10° WNW visible
02 Nov 4.7 14:54:21 10° NNE 14:59:04 36° E 15:03:45 10° SSE visible
03 Nov 3.6 02:20:52 10° S 02:25:55 63° WSW 02:31:01 10° NNW visible
03 Nov 5.9 04:02:33 10° SW 04:05:59 18° W 04:09:26 10° NW visible
03 Nov 5.6 14:17:49 10° NNE 14:21:50 23° E 14:25:50 10° SE visible
03 Nov 3.2 15:56:32 10° NNE 16:01:40 80° ESE 16:06:46 10° SSW visible
04 Nov 3.0 01:43:56 10° SSE 01:49:02 83° ENE 01:54:10 10° NNW visible
04 Nov 5.2 03:24:17 10° SSW 03:28:39 28° W 03:33:04 10° NNW visible
04 Nov 6.2 13:41:42 10° NE 13:44:25 14° ENE 13:47:08 10° ESE visible
04 Nov 4.1 15:19:43 10° NNE 15:24:42 50° E 15:29:39 10° S visible
05 Nov 4.3 02:46:37 10° S 02:51:29 45° W 02:56:24 10° NNW visible
05 Nov 6.3 04:29:38 10° WSW 04:31:53 13° WNW 04:34:09 10° NW visible
05 Nov 5.0 14:43:02 10° NNE 14:47:35 31° E 14:52:06 10° SSE visible
05 Nov 3.0 16:22:00 10° NNE 16:27:07 76° WNW 16:32:12 10° SSW visible
